DW5479 Weather Reports


Display with metric or nautical units.
time (UTC)temp
F
wind
direction
speed
MPH
gust
MPH
rain 1hr
in
rain 24hr
in
rain mn
in
humidity
%
barometer
mb
20260505000107 79 172 6.0 11.0 0.00 0.00 0.00 68 1008.0
20260504234511 79 154 7.0 11.0 0.00 0.00 0.00 68 1008.1
20260504233030 80 160 8.0 13.0 0.00 0.00 0.00 66 1008.2
20260504231558 81 149 3.0 12.0 0.00 0.00 0.00 62 1008.5
20260504230004 81 158 5.0 9.0 0.00 0.00 0.00 62 1008.7
20260504224522 80 171 6.0 11.0 0.00 0.00 0.00 62 1008.7
20260504223038 80 154 5.0 13.0 0.00 0.00 0.00 61 1008.7
20260504221657 81 138 5.0 14.0 0.00 0.00 0.00 61 1008.8
20260504220012 81 168 5.0 15.0 0.00 0.00 0.00 61 1008.8
20260504214532 81 139 6.0 13.0 0.00 0.00 0.00 60 1008.9
20260504213046 80 158 5.0 10.0 0.00 0.00 0.00 61 1009.4
20260504211603 80 165 6.0 11.0 0.00 0.00 0.00 61 1009.7
20260504210013 80 161 6.0 12.0 0.00 0.00 0.00 61 1009.9
20260504204501 79 173 6.0 12.0 0.00 0.00 0.00 63 1010.1
20260504203032 79 180 5.0 11.0 0.00 0.00 0.00 63 1010.4
20260504201547 79 153 5.0 11.0 0.00 0.00 0.00 62 1010.6
20260504194525 80 162 5.0 11.0 0.00 0.00 0.00 63 1010.9
20260504193031 79 190 4.0 13.0 0.00 0.00 0.00 63 1011.1
20260504191556 79 148 4.0 18.0 0.00 0.00 0.00 62 1011.2
20260504190009 80 172 6.0 11.0 0.00 0.00 0.00 61 1011.3
20260504184536 80 129 5.0 14.0 0.00 0.00 0.00 63 1011.9
20260504183044 78 156 4.0 11.0 0.00 0.00 0.00 67 1011.8
20260504181528 78 162 4.0 11.0 0.00 0.00 0.00 65 1012.0
20260504180115 78 169 4.0 15.0 0.00 0.00 0.00 65 1012.3
20260504174600 77 162 7.0 14.0 0.00 0.00 0.00 65 1012.5
20260504173025 78 163 6.0 13.0 0.00 0.00 0.00 65 1012.7
20260504171544 77 152 5.0 12.0 0.00 0.00 0.00 66 1012.9
20260504170104 77 174 6.0 15.0 0.00 0.00 0.00 67 1013.0
20260504081546 63 160 4.0 8.0 0.00 0.00 0.00 78 1014.5
20260504050007 66 136 6.0 12.0 0.00 0.00 0.00 72 1016.4
20260504044525 66 210 7.0 12.0 0.00 0.00 0.00 72 1016.5
20260504043048 66 202 5.0 12.0 0.00 0.00 0.00 71 1016.6
20260504041508 67 172 7.0 13.0 0.00 0.00 0.00 69 1016.7
20260504040034 67 127 6.0 14.0 0.00 0.00 0.00 68 1016.8
20260504034553 67 165 5.0 11.0 0.00 0.00 0.00 67 1016.9
20260504033006 68 156 6.0 13.0 0.00 0.00 0.00 65 1016.8
20260504031524 68 153 5.0 10.0 0.00 0.00 0.00 64 1016.6
20260504030042 68 153 5.0 8.0 0.00 0.00 0.00 63 1016.5
20260504024559 69 179 4.0 8.0 0.00 0.00 0.00 62 1016.7
20260504023009 70 160 4.0 11.0 0.00 0.00 0.00 60 1016.6
20260504021525 70 187 5.0 10.0 0.00 0.00 0.00 59 1016.3
20260504020041 71 193 6.0 11.0 0.00 0.00 0.00 58 1016.3
20260504014600 71 171 4.0 7.0 0.00 0.00 0.00 56 1015.9
20260504013029 71 219 1.0 4.0 0.00 0.00 0.00 53 1015.7
20260504011554 72 108 1.0 3.0 0.00 0.00 0.00 51 1015.6
20260504010002 73 198 0.0 2.0 0.00 0.00 0.00 48 1015.7
20260504004521 75 177 0.0 4.0 0.00 0.00 0.00 46 1015.6
20260504003056 75 174 1.0 7.0 0.00 0.00 0.00 44 1015.7
20260504001511 76 173 4.0 9.0 0.00 0.00 0.00 41 1015.7